Skip Page Navigation
NASA JPL Caltech
NASA Logo - Jet Propulsion Laboratory + View the NASA Portal
+ Center for Near-Earth Object Studies
JPL Home Earth Solar System Stars & Galaxies Technology
JPL Solar System Dynamics
BODIES ORBITS EPHEMERIDES TOOLS PHYSICAL DATA DISCOVERY FAQ SITE MAP
JPL Small-Body Database Browser
Search: [ help ]  
100012 (1989 BC1)
Classification: Main-belt Asteroid          SPK-ID: 2100012
Ephemeris | Orbit Diagram | Orbital Elements | Mission Design | Physical Parameters | Discovery Circumstances ]

[ show orbit diagram ]
Orbital Elements at Epoch 2459396.5 (2021-Jul-01.0) TDB
Reference: JPL 29 (heliocentric ecliptic J2000)
 Element Value Uncertainty (1-sigma)   Units 
e .2798284460726718 4.5307e-08  
a 2.671682228130081 1.4189e-08 au
q 1.924069541832467 1.2318e-07 au
i 27.76945046144918 4.3599e-06 deg
node 119.1086627697878 1.051e-05 deg
peri 288.5243829374126 1.2542e-05 deg
M 199.7212469963031 9.6799e-06 deg
tp 2460106.648351669470
(2023-Jun-11.14835167)
4.6844e-05 TDB
period 1595.054876644271
4.37
1.2707e-05
3.479e-08
d
yr
n .2256975639342139 1.798e-09 deg/d
Q 3.419294914427696 1.8159e-08 au
  Orbit Determination Parameters
   # obs. used (total)      2093  
   data-arc span      11853 days (32.45 yr)  
   first obs. used      1989-01-04  
   last obs. used      2021-06-18  
   planetary ephem.      DE441  
   SB-pert. ephem.      SB441-N16  
   condition code      0  
   norm. resid. RMS      .3525  
   source      ORB  
   producer      Otto Matic  
   solution date      2021-Jul-08 09:00:49  

Additional Information
 Earth MOID = 1.08884 au 
 Jupiter MOID = 2.30513 au 
 T_jup = 3.165 
[ show covariance matrix ]

Ephemeris | Orbit Diagram | Orbital Elements | Mission Design | Physical Parameters | Discovery Circumstances ]

Physical Parameter Table
Parameter Symbol Value Units Sigma Reference Notes
absolute magnitude H 14.29   n/a E2021B55  
diameter diameter 6.154 km 1.186 urn:nasa:pds:neowise_diameters_albedos::2.0[mainbelt] (http://adsabs.harvard.edu/abs/2015ApJ...814..117N)  
geometric albedo albedo 0.032   0.023 urn:nasa:pds:neowise_diameters_albedos::2.0[mainbelt] (http://adsabs.harvard.edu/abs/2012ApJ...759L...8M)  

100012 (1989 BC1)          Discovered 1989-Jan-25 by Mrkos, A. at Klet
Reference: 20051019/Numbers.arcLast Updated: 2005-10-26

Alternate Designations
 1989 BC1 = 1989 AC3 = 2001 VR98 
Ephemeris | Orbit Diagram | Orbital Elements | Mission Design | Physical Parameters | Discovery Circumstances ]
ABOUT SSD CREDITS/AWARDS PRIVACY/COPYRIGHT GLOSSARY LINKS
FirstGov 2021-Jul-25 02:48 UT
(server date/time)  
NASA Home Page
Site Manager:   Ryan S. Park
Webmaster  Alan B. Chamberlin